Home > Weather > Williams Lake > Past weeks

Flag for Canada Weather for the Past 2 Weeks in Williams Lake, British Columbia, Canada

Now
63 °F

Broken clouds.


Feels Like: 63 °F
Forecast: 40 / 54 °F
Wind: 9 mph from East

Location: Williams Lake

Current Time: Apr 28, 2016 at 5:01:56 PM

Latest Report: Apr 28, 2016 at 4:00 PM


Visibility: 15 mi

Pressure: 29.90 "Hg (27.84 "Hg at 607m altitude)

Humidity: 39%

Dew Point: 37 °F

Location of Williams LakeLocation

Historic Weather in Williams Lake — Graph

°F

Williams Lake Temperature Yesterday

Maximum temperature yesterday: 59 °F (at 3:00 PM)
Minimum temperature yesterday: 39 °F (at 6:00 AM)
Average temperature yesterday: 48 °F

High & Low Weather Summary for the Past Weeks

 TemperatureHumidityPressure
High75 °F (Apr 20, 5:00 PM)100% (Apr 22, 6:00 AM)30.35 "Hg (Apr 22, 6:00 AM)
Low28 °F (Apr 15, 5:00 AM)15% (Apr 20, 6:00 PM)29.67 "Hg (Apr 21, 2:00 PM)
Average49 °F60%29.99 "Hg
* Reported Apr 13 3:00 PM — Apr 28 3:00 PM, Williams Lake, Weather by CustomWeather, © 2016

Note: Actual official high and low records may vary slightly from our data, if they occured in-between our weather recording intervals... More about our weather records

Advertising

Williams Lake Weather History for the Previous 24 Hours

Scroll right to see more
 ConditionsComfort  
Time TempWeatherWind HumidityBarometerVisibility
3:00 PM
Thu, Apr 28
57 °FSprinkles. Partly sunny.6 mph48%29.93 "Hg15 mi
2:00 PM59 °FBroken clouds.8 mph42%29.94 "Hg15 mi
1:00 PM57 °FScattered clouds.3 mph48%29.97 "Hg15 mi
12:00 PM57 °FPassing clouds.8 mph48%29.98 "Hg15 mi
11:00 AM54 °FPassing clouds.5 mph58%30.01 "Hg15 mi
10:00 AM48 °FPassing clouds.No wind71%30.03 "Hg15 mi
9:00 AM45 °FScattered clouds.3 mph81%30.05 "Hg15 mi
8:00 AM41 °FPartly sunny.5 mph87%30.06 "Hg15 mi
7:00 AM39 °FPartly sunny.2 mph93%30.07 "Hg15 mi
6:00 AM34 °FPartly cloudy.No wind93%30.06 "Hg15 mi
5:00 AM34 °FPassing clouds.No wind93%30.06 "Hg15 mi
4:00 AM34 °FClear.2 mph93%30.05 "Hg15 mi
3:00 AM36 °FClear.2 mph93%30.05 "Hg15 mi
2:00 AM37 °FClear.3 mph93%30.04 "Hg15 mi
1:00 AM39 °FClear.No wind93%30.05 "Hg15 mi
12:00 AM41 °FClear.No wind87%30.05 "Hg15 mi
11:00 PM
Wed, Apr 27
43 °FPassing clouds.5 mph87%30.04 "Hg15 mi
10:00 PM45 °FPassing clouds.6 mph76%30.06 "Hg15 mi
9:00 PM48 °FBroken clouds.5 mph66%30.04 "Hg15 mi
8:00 PM52 °FSprinkles. Partly sunny.10 mph54%30.02 "Hg15 mi
7:00 PM52 °FSprinkles. Partly sunny.9 mph58%30.02 "Hg15 mi
6:00 PM55 °FBroken clouds.7 mph44%30.01 "Hg15 mi
5:00 PM59 °FPartly sunny.13 mph42%29.99 "Hg15 mi
Weather by CustomWeather, © 2016

See weather overviewHow to use our weather pages